Kuchera_Ratio
0.0 0.0 0.0 0.0 0.0 0.0 0.0 0.0 0.0 0.5 1.5 1.9 2.2 0.0 0.0 0.0 0.0 0.0 0.0 0.0 0.0 0.0 0.0 0.0 0.0 0.0 0.0 0.0 0.0 0.0 0.0 0.0 0.0 0.0 0.0 0.0 0.0 0.0
0.0 0.0 0.0 0.0 0.0 0.0 0.0 0.0 0.0 0.0 0.0 1.9 2.5 1.2 0.3 0.0 0.0 0.7 1.1 0.0 0.0 0.0 0.0 0.0 0.0 0.0 0.0 0.0 0.0 0.0 0.0 0.0 0.0 0.0 0.0 0.0 0.0 0.0
0.0 0.0 0.0 0.0 0.0 0.0 0.0 0.0 0.0 0.0 0.0 1.9 2.6 2.8 3.0 2.8 2.8 2.5 2.8 3.1 4.6 0.0 0.0 0.0 0.0 0.0 0.0 0.0 0.0 0.0 0.0 0.0 0.0 0.0 0.0 0.0 0.0 0.0
0.0 0.0 0.0 0.0 0.0 0.0 0.0 0.0 0.0 0.0 0.0 2.2 3.9 5.4 5.7 4.6 4.9 5.4 4.0 1.1 7.1 0.0 0.0 0.0 0.0 0.0 0.0 0.0 0.0 0.0 0.0 0.0 0.0 0.0 0.0 0.0 0.0 0.0
0.0 0.0 0.0 0.0 0.0 0.0 0.0 0.0 0.0 0.4 1.1 2.9 5.3 7.5 7.9 6.6 8.8 7.5 7.4 8.0 4.5 0.9 0.0 0.0 0.0 0.0 0.0 0.0 0.0 0.0 0.0 0.0 0.0 0.0 0.0 0.0 0.0 0.0
0.0 0.0 0.0 0.0 0.0 0.5 0.0 0.9 2.5 3.0 4.2 5.2 7.2 8.7 8.9 9.1 11.0 11.2 10.0 10.0 9.5 5.6 4.2 2.1 1.3 1.1 0.1 0.0 0.0 0.0 0.0 0.0 0.0 0.0 0.0 0.0 0.0 0.0
0.9 0.6 0.8 0.0 0.0 0.0 2.9 4.4 4.7 5.0 6.1 7.5 8.0 10.0 11.8 12.1 12.0 12.2 12.2 12.2 12.0 11.5 10.4 9.9 10.2 10.9 10.0 4.6 4.3 0.6 0.0 0.0 0.0 0.0 0.0 0.0 0.0 0.0
0.6 0.9 0.0 0.0 0.0 0.0 0.0 0.0 3.7 7.2 7.9 9.3 10.6 11.4 12.0 12.4 13.0 13.2 13.1 13.1 13.3 9.5 12.2 12.0 10.4 12.3 10.1 9.3 1.8 0.1 0.0 0.0 0.0 0.0 0.0 0.0 0.0 0.0
3.3 2.5 1.7 0.0 1.6 1.2 0.0 0.0 0.0 0.0 2.2 9.5 11.6 12.2 12.5 12.4 12.9 12.4 13.4 13.8 14.2 11.9 13.2 13.4 12.5 12.9 9.8 7.1 2.9 0.2 0.0 0.0 0.0 0.0 0.0 0.0 0.0 0.0
3.6 4.6 5.0 5.3 3.8 3.9 6.1 8.5 8.6 8.1 6.6 5.9 10.0 11.4 10.3 10.3 11.0 12.2 13.9 14.1 13.1 12.3 12.2 16.0 13.8 13.4 10.8 9.8 3.6 1.3 0.2 0.4 0.4 0.0 0.0 0.0 0.0 0.0
5.6 4.2 3.8 4.1 0.0 0.1 8.0 9.2 11.6 10.4 1.8 0.6 1.6 1.8 1.9 2.6 5.8 12.1 14.2 15.6 15.8 14.0 12.3 15.2 14.3 13.8 12.6 12.9 10.7 2.9 2.1 2.3 2.2 1.5 1.3 0.7 0.9 1.0
5.4 2.8 0.0 2.8 0.0 1.1 9.5 11.0 12.6 12.6 12.1 12.0 11.9 10.9 10.3 10.1 6.6 12.0 13.0 15.7 15.3 17.0 14.3 14.5 14.4 14.6 16.7 13.5 11.5 10.8 10.7 6.5 3.9 4.3 3.3 2.9 3.1 6.3
7.0 7.5 5.6 0.0 0.4 2.0 5.0 10.8 10.6 10.4 9.8 12.7 13.2 13.7 13.1 12.8 12.8 12.6 12.5 14.1 15.5 15.7 12.3 12.4 15.8 15.7 15.7 15.2 13.3 11.2 12.8 11.8 12.0 10.9 7.0 5.9 4.8 5.4
7.9 8.3 4.8 0.6 1.4 2.4 6.2 2.1 4.0 8.4 12.8 13.6 13.8 13.5 12.6 12.0 11.0 10.7 12.3 12.5 12.9 13.4 12.5 13.1 16.2 16.2 15.9 15.9 15.5 13.0 12.3 12.2 12.7 13.5 12.1 9.7 8.2 7.2
8.5 5.3 1.4 1.4 2.0 4.2 2.7 4.2 7.3 12.9 14.5 14.6 12.8 12.7 12.1 12.0 12.5 12.6 12.1 12.5 13.2 13.1 9.9 12.5 15.5 15.5 16.4 16.1 16.0 15.1 14.3 13.3 13.4 12.9 13.2 12.9 12.6 13.0
3.4 5.7 6.4 7.2 6.7 6.9 9.5 10.4 12.0 12.7 14.1 15.3 15.5 13.9 12.8 13.5 14.6 12.7 15.6 14.7 16.4 15.6 12.4 12.5 12.9 14.2 15.4 15.3 15.9 16.4 15.4 17.8 13.8 13.7 13.4 12.6 12.3 12.5
9.8 12.1 12.9 13.4 13.9 14.1 13.9 13.7 13.9 13.7 15.3 15.2 15.8 15.5 13.8 13.1 13.1 12.5 16.3 16.5 17.9 17.4 16.6 14.1 12.9 13.5 14.4 15.9 17.3 15.7 15.7 15.2 13.9 13.9 13.8 14.2 13.2 12.7
12.4 12.9 13.2 13.5 13.9 14.4 14.9 15.3 14.5 14.0 15.0 15.3 16.0 14.7 15.5 15.6 15.5 16.5 16.5 17.2 17.8 17.4 17.3 16.0 16.1 15.7 16.1 15.2 11.2 15.2 15.6 14.8 14.4 13.3 13.3 15.5 15.1 13.1
12.6 13.2 13.7 14.1 14.7 15.0 15.3 15.5 15.8 14.0 13.8 14.1 15.1 15.3 15.4 15.6 16.5 17.2 17.3 17.7 17.5 17.3 16.2 16.1 16.4 17.5 18.7 18.8 15.2 8.1 15.2 15.2 15.1 14.7 14.2 15.2 15.5 14.4
12.9 13.8 14.3 14.6 14.8 15.0 15.4 15.7 15.0 14.1 14.5 14.9 16.2 16.8 16.5 16.8 17.2 17.4 18.0 18.6 17.9 16.5 17.2 16.2 16.4 16.9 15.8 17.3 16.7 14.9 12.1 15.2 15.7 15.8 15.7 14.5 13.2 8.9
13.4 13.8 13.9 14.6 15.0 15.3 15.6 15.8 14.9 15.2 15.5 17.3 16.8 17.0 16.6 16.6 17.2 17.7 18.1 15.2 14.9 18.0 18.6 17.7 15.5 9.8 15.3 16.0 17.3 17.0 15.9 11.4 12.5 15.4 15.4 16.6 17.3 16.8
13.4 13.8 14.4 14.8 15.2 15.5 15.9 14.2 15.9 14.8 15.4 15.7 15.9 16.9 16.4 16.1 17.3 18.3 18.4 18.6 18.1 17.7 17.9 16.9 15.2 15.1 15.9 17.0 19.0 18.4 17.5 16.4 13.6 12.0 10.9 12.2 15.8 18.1
13.5 14.0 14.5 14.8 15.3 14.0 15.7 16.0 15.1 14.9 15.3 15.8 16.7 17.1 16.8 17.1 18.1 18.1 18.1 17.7 17.7 17.8 17.4 17.2 16.3 15.8 16.2 17.7 16.8 18.3 19.2 18.5 17.5 18.3 16.7 10.9 9.9 9.8